Regional Weather Roundup
Issued by NWS

Home | Current Version | Previous Version | Text Only | Print | Product List | Glossary Off
Versions: 1 2 3 4 5 6 7 8 9 10 11 12 13 14 15 16 17 18 19 20 21 22 23 24 25 26 27

000
ASUS45 KTFX 200310
RWRMT
MONTANA REGIONAL WEATHER ROUNDUP
NATIONAL WEATHER SERVICE GREAT FALLS MT
800 PM MST SUN FEB 19 2017

NOTE: "FAIR" INDICATES FEW OR NO CLOUDS BELOW 12000 FEET WITH NO
SIGNIFICANT WEATHER AND/OR OBSTRUCTIONS TO VISIBILITY.

MTZ001>007-043-200400-
WEST OF THE DIVIDE

CITY           SKY/WX    TMP DP  RH WIND       PRES   REMARKS
KALISPELL      CLOUDY    35  33  92 CALM      29.62R
MISSOULA       CLOUDY    35  33  92 NE6       29.70S WCI  30
BUTTE          CLOUDY    36  22  56 W15G21    29.65R WCI  27
MULLAN PASS    MOCLDY    23  22  96 VRB5      29.59S
ANACONDA         N/A     34  28  80 S8        29.65S WCI  27
DEER LODGE       N/A     36  28  75 SE10G18   29.66R WCI  28
EUREKA           N/A     39  27  60 E3        29.60R
HAMILTON         N/A     37  27  65 S3        29.67R
LIBBY            N/A     32  32 100 CALM      29.62R
RONAN            N/A     34  32  92 SE3       29.73R
$$

MTZ008-052>055-200400-
SOUTHWEST MONTANA

CITY           SKY/WX    TMP DP  RH WIND       PRES   REMARKS
BOZEMAN        CLOUDY    34  32  92 S10       29.66R WCI  26
DILLON         CLOUDY    35  24  64 SW15      29.68R WCI  25
W YELLOWSTONE  CLOUDY    28  27  93 SW22G30   29.74R FOG     WCI  15
ENNIS          MOCLDY    36  27  69 S16       29.74R WCI  26
THREE FORKS      N/A     39   2  21 W2        29.67R
TWIN BRIDGES     N/A     36  24  62 N2        29.71R
$$

MTZ009-010-012-014-046-048-049-054-200400-
EAST SLOPES AND CENTRAL MONTANA

CITY           SKY/WX    TMP DP  RH WIND       PRES   REMARKS
CUT BANK       MOCLDY    34  22  61 W5        29.54S
GREAT FALLS    CLOUDY    34  21  59 SW7       29.57R WCI  28
MALMSTROM AFB  CLOUDY    39  22  50 CALM      29.58R
HELENA         PTCLDY    39  30  70 W12       29.62R WCI  32
AUGUSTA        MOCLDY    36  24  61 SW8       29.57R WCI  30
BOWMANS CRNR   MOCLDY    35  27  74 W7        29.58R WCI  29
CHOTEAU          N/A     37  23  56 SW5       29.57S
CONRAD           N/A     31  29  92 W1        29.62R
POWER            N/A     29  24  80 CALM      29.56R
RAYNESFORD     CLOUDY    42  25  50 S17       29.58R
ULM            MOCLDY    37  27  66 MISG      29.58R
$$

MTZ011-013-016-021-045-047-050-051-200400-
NORTH CENTRAL MONTANA

CITY           SKY/WX    TMP DP  RH WIND       PRES   REMARKS
HAVRE          PTCLDY    37  29  72 CALM      29.56R
LEWISTOWN      PTCLDY    34  30  85 E3        29.60R
N BAR RANCH      N/A     32  23  69 NW6       29.62S WCI  26
CHINOOK          N/A     34  30  86 CALM      29.57R
DENTON         MOCLDY    40  24  51 SW20      29.55R
FORT BENTON      N/A    N/A N/A N/A MISG      29.57S
GEYSER         CLOUDY    42  24  48 SW24      29.58R
GRASS RANGE    MOCLDY    37  31  81 W5        29.56R
JUDITH GAP     MOCLDY    39  24  56 W6        29.60R
ROY            MOCLDY    38  27  64 MISG      29.57R
STANFORD         N/A     38  26  62 W18G26    29.60R WCI  28
WINIFRED       MOCLDY    41  28  57 SW5       29.58R
$$

MTZ017>020-022>027-061-062-200400-
NORTHEAST MONTANA

CITY           SKY/WX    TMP DP  RH WIND       PRES   REMARKS
GLASGOW        FOG       30  30 100 VRB5      29.56S VSB 1/4
JORDAN           N/A     36  31  82 W8        29.56R WCI  30
SIDNEY         CLOUDY    34  32  92 NW12      29.56R WCI  25
WOLF POINT     FOG       34  32  92 SW3       29.57S VSB 1/4
PLENTYWOOD       N/A     32  32 100 W7        29.56R VSB 1/4 WCI  26
POPLAR           N/A     34  32  93 W5        29.57F VSB 1/4
$$

MTZ028>42-056>058-200400-
SOUTHCENTRAL AND SOUTHEAST MONTANA

CITY           SKY/WX    TMP DP  RH WIND       PRES   REMARKS
BAKER          CLOUDY    40  35  83 SW3       29.53R
BILLINGS       CLOUDY    42  28  57 NW7       29.61R
LIVINGSTON     CLOUDY    36  31  82 N12       29.65R WCI  28
MILES CITY     CLOUDY    46  36  68 NW8       29.55R
BIG TIMBER     CLEAR     36  30  80 W12       29.64R WCI  27
FORSYTH          N/A     45  36  70 W3        29.58R
HARLOWTON      MOCLDY    37  26  66 NW8       29.60R WCI  30
LAUREL           N/A     43  24  47 CALM      29.64R
$$

REGIONAL REPORTS...DAKOTAS

CITY           SKY/WX    TMP DP  RH WIND       PRES   REMARKS
WILLISTON      FOG       33  32  96 CALM      29.56R VSB 1/4
MINOT          CLOUDY    32  31  96 CALM      29.53R
DICKINSON      CLOUDY    41  35  79 N5        29.47S
BEACH            N/A    N/A N/A N/A MISG        N/A
CROSBY         FOG       32  32 100 NE3       29.57S VSB 1
TIOGA          FOG       32  32 100 SE3       29.56R VSB 1/4
WATFORD CITY     N/A     32  32 100 W3        29.54R
BISMARCK       CLOUDY    37  34  89 E10       29.52F WCI  30
GRAND FORKS    MOCLDY    41  34  76 SE15      29.61F
FARGO          CLOUDY    53  47  79 SE22G36   29.62F
BUFFALO SD       N/A     49  36  61 W3        29.45R
RAPID CITY     CLOUDY    53  34  48 SW6       29.56R
$$

REGIONAL REPORTS...WYOMING/IDAHO/WASHINGTON

CITY           SKY/WX    TMP DP  RH WIND       PRES   REMARKS
GILLETTE       PTCLDY    46  33  60 NW12      29.56R
SHERIDAN       RAIN      43  35  73 W18       29.61R
BUFFALO WY     CLOUDY    44  30  57 N7        29.62R
CODY           CLOUDY    41  24  51 W21G29    29.67R
YELLOWSTONE LA   N/A     24  20  84 VRB5      29.76R
IDAHO FALLS    CLEAR     34  30  85 S15       29.80R WCI  24
SALMON         CLOUDY    37  27  65 S7        29.71R
BOISE          PTCLDY    40  36  86 SE5       29.75S
SPOKANE        PTCLDY    34  33  96 E3        29.63R
$$

REGIONAL REPORTS...ALBERTA

CITY           SKY/WX    TMP DP  RH WIND       PRES   REMARKS
EDMONTON       MOCLDY    34  30  86 NW3       29.50R
CALGARY        CLOUDY    32  28  86 E6        29.49S WCI  26
LETHBRIDGE     PTCLDY    30  27  86 SW10      29.50F WCI  21
MEDICINE HAT   PTCLDY    30  27  86 SW5       29.51R
WATERTON GATE    N/A     34  27  75 SW20G28     N/A  WCI  22
CARDSTON         N/A     34  21  60 S5          N/A
MILK RIVER       N/A     32  25  74 E5          N/A
$$

REGIONAL REPORTS...SASKATCHEWAN

CITY           SKY/WX    TMP DP  RH WIND       PRES   REMARKS
SWIFT CURRENT  PTCLDY    36  34  93 SW8       29.49S WCI  29
REGINA         DRIZZLE   32  32 100 SE8       29.56S WCI  25
SASKATOON      CLOUDY    34  32  93 S8        29.56R WCI  27
CYPRESS HILLS    N/A     34  27  75 W7          N/A  WCI  28
VAL MARIE        N/A     30  28  93 W6          N/A  WCI  24
ROCKGLEN         N/A     34  32  93 W10         N/A  WCI  26
ASSINIBOIA       N/A     34  34 100 W7          N/A  WCI  28
$$




USA.gov is the U.S. government's official web portal to all federal, state and local government web resources and services.